Weather History for Sioux Falls, SD

Change the Weather History Date:

Thursday, March 28, 2013

  Actual Average Record
Temperature  
Mean Temperature 42 °F 38 °F  
Max Temperature 58 °F 49 °F 82 °F (1910)
Min Temperature 25 °F 27 °F -5 °F (1899)
Degree Days  
Heating Degree Days 23 27  
Month to date heating degree days 1085 917  
Since 1 July heating degree days 6704 6767  
Cooling Degree Days 0 0  
Month to date cooling degree days 0 0  
Year to date cooling degree days 0 0  
Moisture  
Dew Point 29 °F    
Average Humidity 64    
Maximum Humidity 92    
Minimum Humidity 36    
Precipitation  
Precipitation 0.00 in 0.09 in 1.37 in (1981)
Month to date precipitation 0.88 1.50  
Year to date precipitation 2.23 2.66  
Snow  
Snow 0.00 in 0.20 in 5.50 in (1900)
Month to date snowfall 1.5 7.7  
Since 1 July snowfall 27.0 39.2  
Snow Depth 0.00 in    
Sea Level Pressure  
Sea Level Pressure 30.23 in    
Wind  
Wind Speed 8 mph (SSE)    
Max Wind Speed 16 mph    
Max Gust Speed 22 mph    
Visibility 9 miles    
Events      
T = Trace of Precipitation, MM = Missing Value Source: NWS Daily Summary

Daily Weather History Graph

Daily Weather History Graph

Search for Another Location

Airport:

Trip Planner

Search our weather history database for the weather conditions in past years. The results will help you decide how hot, cold, wet, or windy it might be!

Date:

Astronomy

Mar. 28, 2013 Rise Set
Actual Time 7:15 AM CDT 7:49 PM CDT
Civil Twilight 6:46 AM CDT 8:18 PM CDT
Nautical Twilight 6:12 AM CDT 8:52 PM CDT
Astronomical Twilight 5:37 AM CDT 9:27 PM CDT
Moon 9:47 PM CDT (3/28) 7:40 AM CDT (3/28)
Length of Visible Light 13h 31m
Length of Day
12h 34m
Full, 98% of the Moon is Illuminated
Mar 28
Full
Apr 2
Last Quarter
Apr 10
New
Apr 18
First Quarter
Apr 25
Full

Hourly Weather History & Observations

Time (CDT) Temp. Windchill Dew Point Humidity Pressure Visibility Wind Dir Wind Speed Gust Speed Precip Events Conditions
12:56 AM 30.9 °F 25.2 °F 27.0 °F 85% 30.27 in 9.0 mi ESE 5.8 mph - N/A   Clear
1:56 AM 30.9 °F 25.2 °F 27.0 °F 85% 30.27 in 9.0 mi ESE 5.8 mph - N/A   Clear
2:56 AM 30.0 °F 23.2 °F 27.0 °F 88% 30.26 in 9.0 mi SE 6.9 mph - N/A   Clear
3:56 AM 28.0 °F 22.8 °F 25.0 °F 88% 30.25 in 8.0 mi ESE 4.6 mph - N/A   Clear
4:56 AM 27.0 °F 23.0 °F 25.0 °F 92% 30.25 in 9.0 mi East 3.5 mph - N/A   Clear
5:56 AM 26.1 °F 20.5 °F 24.1 °F 92% 30.25 in 8.0 mi East 4.6 mph - N/A   Clear
6:56 AM 26.1 °F - 23.0 °F 88% 30.26 in 8.0 mi Calm Calm - N/A   Clear
7:56 AM 28.9 °F 22.8 °F 26.1 °F 89% 30.26 in 8.0 mi SE 5.8 mph - N/A   Clear
8:56 AM 34.0 °F 28.8 °F 28.9 °F 82% 30.26 in 10.0 mi SSE 5.8 mph - N/A   Clear
9:56 AM 37.9 °F 32.1 °F 30.0 °F 73% 30.26 in 10.0 mi South 8.1 mph - N/A   Clear
10:56 AM 44.1 °F 39.0 °F 32.0 °F 63% 30.25 in 10.0 mi South 9.2 mph - N/A   Clear
11:56 AM 48.9 °F - 33.1 °F 54% 30.24 in 10.0 mi SSW 12.7 mph - N/A   Clear
12:56 PM 53.1 °F - 33.1 °F 47% 30.22 in 10.0 mi South 11.5 mph - N/A   Scattered Clouds
1:56 PM 55.0 °F - 34.0 °F 45% 30.21 in 10.0 mi South 13.8 mph 20.7 mph N/A   Scattered Clouds
2:56 PM 55.0 °F - 32.0 °F 42% 30.20 in 10.0 mi South 11.5 mph 16.1 mph N/A   Partly Cloudy
3:56 PM 57.9 °F - 33.1 °F 39% 30.18 in 10.0 mi South 12.7 mph - N/A   Partly Cloudy
4:56 PM 57.0 °F - 30.9 °F 37% 30.18 in 10.0 mi SSW 8.1 mph - N/A   Partly Cloudy
5:56 PM 57.0 °F - 30.9 °F 37% 30.18 in 10.0 mi SSW 10.4 mph - N/A   Scattered Clouds
6:56 PM 54.0 °F - 30.9 °F 41% 30.19 in 10.0 mi SSW 11.5 mph - N/A   Partly Cloudy
7:56 PM 46.9 °F - 30.9 °F 54% 30.21 in 10.0 mi South 6.9 mph - N/A   Partly Cloudy
8:56 PM 43.0 °F 39.5 °F 30.0 °F 60% 30.22 in 10.0 mi South 5.8 mph - N/A   Clear
9:56 PM 42.1 °F 39.2 °F 30.9 °F 65% 30.23 in 10.0 mi SE 4.6 mph - N/A   Clear
10:56 PM 39.9 °F 35.1 °F 32.0 °F 73% 30.23 in 10.0 mi SSE 6.9 mph - N/A   Clear
11:56 PM 39.0 °F 34.0 °F 33.1 °F 79% 30.23 in 10.0 mi SE 6.9 mph - N/A   Clear